N4XWC Weather Reports


time (UTC)temp
C
wind
direction
speed
KPH
gust
KPH
rain 1hr
cm
rain 24hr
cm
rain mn
cm
humidity
%
barometer
mb
20260502214800 18 233 1.6 3.2 0.00 0.00 0.00 40 1015.2
20260502214301 18 356 3.2 9.7 0.00 0.00 0.00 38 1015.2
20260502214214 18 356 3.2 9.7 0.00 0.00 0.00 38 1015.2
20260502213800 18 3 4.8 16.1 0.00 0.00 0.00 39 1015.2
20260502213301 18 0 9.7 14.5 0.00 0.00 0.00 37 1015.2
20260502213215 18 0 9.7 14.5 0.00 0.00 0.00 37 1015.2
20260502212800 18 330 6.4 9.7 0.00 0.00 0.00 40 1015.2
20260502212304 18 59 4.8 8.0 0.00 0.00 0.00 41 1015.2
20260502212214 18 59 4.8 8.0 0.00 0.00 0.00 41 1015.2
20260502211801 18 292 9.7 16.1 0.00 0.00 0.00 40 1015.2
20260502211300 18 27 3.2 14.5 0.00 0.00 0.00 39 1015.3
20260502211214 18 27 3.2 14.5 0.00 0.00 0.00 39 1015.3
20260502210800 18 311 8.0 14.5 0.00 0.00 0.00 40 1015.3
20260502210301 18 23 4.8 11.3 0.00 0.00 0.00 38 1015.3
20260502210214 18 23 4.8 11.3 0.00 0.00 0.00 38 1015.3
20260502205800 18 350 14.5 16.1 0.00 0.00 0.00 38 1015.2
20260502205300 18 1 8.0 16.1 0.00 0.00 0.00 38 1015.2
20260502205214 18 1 8.0 16.1 0.00 0.00 0.00 38 1015.2
20260502204802 18 343 14.5 16.1 0.00 0.00 0.00 41 1015.2
20260502204301 18 313 4.8 12.9 0.00 0.00 0.00 40 1015.4
20260502204213 18 313 4.8 12.9 0.00 0.00 0.00 40 1015.4
20260502203800 18 0 12.9 14.5 0.00 0.00 0.00 39 1015.4
20260502203301 18 325 14.5 16.1 0.00 0.00 0.00 40 1015.4
20260502203216 18 325 14.5 16.1 0.00 0.00 0.00 40 1015.4
20260502202801 18 17 6.4 19.3 0.00 0.00 0.00 40 1015.3
20260502202300 18 68 0.0 11.3 0.00 0.00 0.00 40 1015.3
20260502202215 18 68 0.0 11.3 0.00 0.00 0.00 40 1015.3
20260502201801 18 3 14.5 16.1 0.00 0.00 0.00 40 1015.3
20260502201301 18 322 9.7 16.1 0.00 0.00 0.00 40 1015.4
20260502201214 18 322 9.7 16.1 0.00 0.00 0.00 40 1015.4
20260502200802 18 71 8.0 29.0 0.00 0.00 0.00 38 1015.4
20260502200300 18 311 1.6 24.1 0.00 0.00 0.00 41 1015.4
20260502200214 18 311 1.6 24.1 0.00 0.00 0.00 41 1015.4
20260502195800 19 8 16.1 25.7 0.00 0.00 0.00 38 1015.5
20260502195301 19 28 3.2 17.7 0.00 0.00 0.00 38 1015.5
20260502195215 19 28 3.2 17.7 0.00 0.00 0.00 38 1015.5
20260502194802 18 0 14.5 16.1 0.00 0.00 0.00 39 1015.5
20260502194301 18 304 3.2 14.5 0.00 0.00 0.00 39 1015.6
20260502194215 18 304 3.2 14.5 0.00 0.00 0.00 39 1015.6
20260502193801 18 4 6.4 11.3 0.00 0.00 0.00 38 1015.6
20260502193301 18 32 8.0 14.5 0.00 0.00 0.00 40 1015.6
20260502193216 18 32 8.0 14.5 0.00 0.00 0.00 40 1015.6
20260502192802 18 359 16.1 16.1 0.00 0.00 0.00 38 1015.5
20260502192304 18 332 25.7 25.7 0.00 0.00 0.00 39 1015.5
20260502192215 18 332 25.7 25.7 0.00 0.00 0.00 39 1015.5
20260502191801 18 316 6.4 16.1 0.00 0.00 0.00 37 1015.5
20260502191300 18 31 14.5 24.1 0.00 0.00 0.00 36 1015.6
20260502191214 18 31 14.5 24.1 0.00 0.00 0.00 36 1015.6
20260502190801 18 56 3.2 16.1 0.00 0.00 0.00 37 1015.6
20260502190300 18 73 8.0 11.3 0.00 0.00 0.00 36 1015.6
20260502190215 18 73 8.0 11.3 0.00 0.00 0.00 36 1015.6
20260502185801 18 330 0.0 16.1 0.00 0.00 0.00 36 1015.7
20260502185301 18 18 6.4 16.1 0.00 0.00 0.00 36 1015.7
20260502185214 18 18 6.4 16.1 0.00 0.00 0.00 36 1015.7
20260502184800 18 328 14.5 14.5 0.00 0.00 0.00 38 1015.7
20260502184302 18 4 9.7 17.7 0.00 0.00 0.00 36 1016.0
20260502184214 18 10 1.6 1.6 0.00 0.00 0.00 36 1016.0
20260502183801 18 44 4.8 16.1 0.00 0.00 0.00 35 1016.0
20260502183302 18 25 9.7 17.7 0.00 0.00 0.00 34 1016.0
20260502183213 18 25 9.7 17.7 0.00 0.00 0.00 34 1016.0
20260502182800 18 344 8.0 11.3 0.00 0.00 0.00 35 1015.9
20260502182300 18 323 9.7 16.1 0.00 0.00 0.00 38 1015.9
20260502182215 18 323 9.7 16.1 0.00 0.00 0.00 38 1015.9
20260502181800 18 0 9.7 22.5 0.00 0.00 0.00 34 1015.9
20260502181301 18 38 4.8 6.4 0.00 0.00 0.00 36 1015.9
20260502181214 18 38 4.8 6.4 0.00 0.00 0.00 36 1015.9
20260502180800 18 312 11.3 16.1 0.00 0.00 0.00 40 1015.9
20260502180301 18 93 0.0 11.3 0.00 0.00 0.00 39 1015.9
20260502180214 18 93 0.0 11.3 0.00 0.00 0.00 39 1015.9
20260502170301 17 308 8.0 16.1 0.00 0.00 0.00 46 1016.5
20260502170214 17 308 8.0 16.1 0.00 0.00 0.00 46 1016.5
20260502164301 16 350 16.1 16.1 0.00 0.00 0.00 45 1016.7
20260502164214 16 350 16.1 16.1 0.00 0.00 0.00 45 1016.7
20260502163801 16 48 1.6 12.9 0.00 0.00 0.00 47 1016.7
20260502163300 16 325 14.5 17.7 0.00 0.00 0.00 50 1016.7
20260502163214 16 325 14.5 17.7 0.00 0.00 0.00 50 1016.7
20260502162801 16 80 0.0 8.0 0.00 0.00 0.00 53 1016.8
20260502162301 16 347 14.5 14.5 0.00 0.00 0.00 51 1016.8
20260502162214 16 347 14.5 14.5 0.00 0.00 0.00 51 1016.8
20260502161800 15 336 6.4 16.1 0.00 0.00 0.00 51 1016.8
20260502161301 15 16 1.6 12.9 0.00 0.00 0.00 52 1016.9
20260502161215 15 16 1.6 12.9 0.00 0.00 0.00 52 1016.9
20260502160800 15 112 6.4 12.9 0.00 0.00 0.00 53 1016.9
20260502160302 15 6 11.3 16.1 0.00 0.00 0.00 52 1016.9
20260502160213 15 18 14.5 16.1 0.00 0.00 0.00 52 1016.9
20260502152305 13 8 17.7 17.7 0.00 0.00 0.00 61 1016.6
20260502152221 13 337 11.3 11.3 0.00 0.00 0.00 61 1016.6
20260502151801 13 48 4.8 16.1 0.00 0.00 0.00 61 1016.6
20260502151301 13 27 14.5 14.5 0.00 0.00 0.00 60 1016.5
20260502151215 13 27 14.5 14.5 0.00 0.00 0.00 60 1016.5
20260502150801 13 69 9.7 17.7 0.00 0.00 0.00 63 1016.5
20260502150302 13 24 4.8 8.0 0.00 0.00 0.00 65 1016.5
20260502150214 13 316 6.4 16.1 0.00 0.00 0.00 66 1016.5
20260502130301 10 6 3.2 4.8 0.00 0.00 0.00 74 1015.2
20260502130217 10 342 3.2 11.3 0.00 0.00 0.00 74 1015.2
20260502123540 11 17 3.2 11.3 0.00 0.00 0.00 69 1015.0
20260502123215 11 24 4.8 14.5 0.00 0.00 0.00 68 1015.0
20260502123041 11 343 4.8 14.5 0.00 0.00 0.00 68 1015.0
20260502122540 11 359 4.8 9.7 0.00 0.00 0.00 68 1014.9
20260502122213 11 357 6.4 16.1 0.00 0.00 0.00 68 1014.9
20260502122041 11 40 4.8 9.7 0.00 0.00 0.00 68 1014.9
20260502121540 11 1 1.6 9.7 0.00 0.00 0.00 68 1014.9
20260502121215 11 13 4.8 11.3 0.00 0.00 0.00 68 1014.7
20260502121041 11 357 6.4 19.3 0.00 0.00 0.00 67 1014.7
20260502120542 11 24 3.2 6.4 0.00 0.00 0.00 66 1014.7
20260502120214 11 8 1.6 8.0 0.00 0.00 0.00 67 1014.7
20260502115540 11 30 1.6 3.2 0.00 0.00 0.00 66 1014.8
20260502115215 11 40 3.2 6.4 0.00 0.00 0.00 66 1014.8
20260502115040 11 8 3.2 6.4 0.00 0.00 0.00 66 1014.8
20260502114541 11 18 6.4 9.7 0.00 0.00 0.00 65 1014.8
20260502114213 11 13 11.3 16.1 0.00 0.00 0.00 65 1014.8
20260502114041 11 42 6.4 9.7 0.00 0.00 0.00 65 1014.8
20260502113541 11 7 9.7 9.7 0.00 0.00 0.00 65 1014.8
20260502113215 11 28 4.8 9.7 0.00 0.00 0.00 65 1014.8
20260502113040 11 21 4.8 8.0 0.00 0.00 0.00 65 1014.8
20260502112541 11 32 3.2 8.0 0.00 0.00 0.00 66 1014.4
20260502112213 11 357 0.0 8.0 0.00 0.00 0.00 66 1014.4
20260502112041 11 78 1.6 11.3 0.00 0.00 0.00 66 1014.4
20260502111540 11 342 8.0 11.3 0.00 0.00 0.00 66 1014.4
20260502111215 11 100 1.6 9.7 0.00 0.00 0.00 66 1014.0
20260502111040 11 14 4.8 11.3 0.00 0.00 0.00 66 1014.0
20260502110542 11 357 1.6 4.8 0.00 0.00 0.00 66 1014.0
20260502110214 11 3 4.8 9.7 0.00 0.00 0.00 66 1014.0
20260502110041 11 357 8.0 8.0 0.00 0.00 0.00 65 1014.0
20260502105541 11 1 0.0 1.6 0.00 0.00 0.00 64 1013.8
20260502105213 11 0 6.4 6.4 0.00 0.00 0.00 64 1013.8
20260502105041 11 80 6.4 6.4 0.00 0.00 0.00 64 1013.8
20260502104542 11 1 4.8 4.8 0.00 0.00 0.00 64 1013.8
20260502104214 11 45 4.8 4.8 0.00 0.00 0.00 64 1013.9
20260502104041 11 23 4.8 6.4 0.00 0.00 0.00 63 1013.9
20260502103541 11 99 0.0 0.0 0.00 0.00 0.00 63 1013.9
20260502103213 11 7 8.0 9.7 0.00 0.00 0.00 63 1013.9
20260502103041 11 24 3.2 8.0 0.00 0.00 0.00 64 1013.9
20260502102541 11 30 3.2 8.0 0.00 0.00 0.00 63 1014.3
20260502102213 11 7 8.0 8.0 0.00 0.00 0.00 64 1014.3
20260502102041 11 0 0.0 3.2 0.00 0.00 0.00 64 1014.3
20260502101540 11 7 0.0 1.6 0.00 0.00 0.00 63 1014.3
20260502101215 11 34 0.0 3.2 0.00 0.00 0.00 63 1014.1
20260502101040 11 21 3.2 6.4 0.00 0.00 0.00 63 1014.1
20260502100541 11 17 6.4 8.0 0.00 0.00 0.00 62 1014.1
20260502100216 11 54 8.0 9.7 0.00 0.00 0.00 62 1014.1
20260502091359 11 47 3.2 9.7 0.00 0.00 0.00 62 1014.1
20260502091213 11 47 3.2 9.7 0.00 0.00 0.00 62 1014.1
20260502091042 11 1 3.2 3.2 0.00 0.00 0.00 61 1014.1
20260502090540 11 18 14.5 14.5 0.00 0.00 0.00 62 1014.1
20260502090246 12 332 4.8 9.7 0.00 0.00 0.00 62 1014.1
20260502090214 12 332 4.8 9.7 0.00 0.00 0.00 62 1014.1
20260502071216 12 38 8.0 16.1 0.00 0.00 0.00 62 1014.2
20260502071041 12 352 3.2 8.0 0.00 0.00 0.00 62 1014.2
20260502070540 12 17 6.4 11.3 0.00 0.00 0.00 63 1014.2
20260502070214 12 59 8.0 16.1 0.00 0.00 0.00 64 1014.2
20260502070042 12 21 1.6 3.2 0.00 0.00 0.00 64 1014.2
20260502065541 12 28 8.0 8.0 0.00 0.00 0.00 62 1014.1
20260502065215 13 340 1.6 4.8 0.00 0.00 0.00 61 1014.1
20260502065041 13 61 4.8 9.7 0.00 0.00 0.00 61 1014.1
20260502064541 13 16 1.6 6.4 0.00 0.00 0.00 62 1014.1
20260502064247 13 1 6.4 12.9 0.00 0.00 0.00 61 1014.3
20260502064214 13 1 6.4 12.9 0.00 0.00 0.00 61 1014.3
20260502064042 13 1 12.9 14.5 0.00 0.00 0.00 62 1014.3
20260502063541 13 4 14.5 14.5 0.00 0.00 0.00 63 1014.3
20260502063215 13 8 6.4 8.0 0.00 0.00 0.00 63 1014.3
20260502063040 13 3 3.2 16.1 0.00 0.00 0.00 63 1014.3
20260502062541 13 10 4.8 11.3 0.00 0.00 0.00 64 1014.3
20260502062214 13 359 11.3 11.3 0.00 0.00 0.00 65 1014.3
20260502062042 13 16 1.6 9.7 0.00 0.00 0.00 66 1014.3
20260502061541 13 23 8.0 9.7 0.00 0.00 0.00 68 1014.3
20260502061215 13 25 4.8 11.3 0.00 0.00 0.00 69 1014.4
20260502061041 13 14 4.8 11.3 0.00 0.00 0.00 69 1014.4
20260502060540 13 4 4.8 6.4 0.00 0.00 0.00 70 1014.4
20260502060213 13 1 3.2 8.0 0.00 0.00 0.00 71 1014.4
20260502060042 13 0 0.0 8.0 0.00 0.00 0.00 71 1014.4
20260502055541 13 17 1.6 9.7 0.00 0.00 0.00 74 1014.1
20260502055214 13 17 6.4 8.0 0.00 0.00 0.00 75 1014.1
20260502055040 13 37 0.0 14.5 0.00 0.00 0.00 75 1014.1
20260502054541 13 52 8.0 11.3 0.00 0.00 0.00 77 1014.1
20260502054213 13 1 4.8 9.7 0.00 0.00 0.00 79 1014.0
20260502054042 13 4 8.0 16.1 0.00 0.00 0.00 79 1014.0
20260502053542 13 4 6.4 14.5 0.00 0.00 0.00 80 1014.0
20260502053213 13 13 11.3 11.3 0.00 0.00 0.00 81 1014.0
20260502053041 13 0 3.2 12.9 0.00 0.00 0.00 82 1014.0
20260502052542 13 1 4.8 14.5 0.00 0.00 0.00 82 1013.9
20260502052215 13 6 1.6 4.8 0.00 0.00 0.00 82 1013.9
20260502052040 13 52 6.4 14.5 0.00 0.00 0.00 82 1013.9
20260502051540 13 18 8.0 9.7 0.00 0.00 0.00 82 1013.9
20260502051214 13 6 1.6 6.4 0.00 0.00 0.00 82 1013.9
20260502051041 13 354 8.0 16.1 0.00 0.00 0.00 82 1013.9
20260502050542 13 357 8.0 8.0 0.00 0.00 0.00 82 1013.9
20260502050215 13 8 3.2 11.3 0.00 0.00 0.00 82 1013.9
20260502050040 13 13 4.8 16.1 0.00 0.00 0.00 82 1013.9
20260502045541 13 8 8.0 16.1 0.00 0.00 0.00 83 1013.8
20260502045213 13 35 8.0 8.0 0.00 0.00 0.00 83 1013.8
20260502045040 13 8 9.7 14.5 0.00 0.00 0.00 83 1013.8
20260502044541 13 359 8.0 8.0 0.00 0.00 0.00 83 1013.8
20260502044215 13 32 6.4 14.5 0.00 0.00 0.00 83 1013.6
20260502044040 13 1 6.4 14.5 0.00 0.00 0.00 83 1013.6
20260502043541 13 0 6.4 14.5 0.00 0.00 0.00 83 1013.6
20260502043214 13 335 3.2 6.4 0.00 0.00 0.00 82 1013.6
20260502043042 13 27 6.4 6.4 0.00 0.00 0.00 82 1013.6
20260502042541 13 0 9.7 16.1 0.00 0.00 0.00 82 1013.6
20260502042214 13 357 9.7 9.7 0.00 0.00 0.00 82 1013.6
20260502042040 13 20 11.3 16.1 0.00 0.00 0.00 82 1013.6
20260502041540 13 357 8.0 11.3 0.00 0.00 0.00 82 1013.6
20260502041214 13 325 6.4 12.9 0.00 0.00 0.00 82 1013.8
20260502041040 13 0 1.6 3.2 0.00 0.00 0.00 82 1013.8
20260502040541 13 316 4.8 4.8 0.00 0.00 0.00 82 1013.8
20260502040214 13 343 4.8 6.4 0.00 0.00 0.00 82 1013.8
20260502040042 13 356 6.4 6.4 0.00 0.00 0.00 82 1013.8
20260502035858 14 336 4.8 4.8 0.00 0.00 0.00 80 1013.7
20260502035541 14 16 4.8 4.8 0.00 0.00 0.00 81 1013.7
20260502035214 14 336 4.8 4.8 0.00 0.00 0.00 80 1013.7
20260502035041 14 24 4.8 8.0 0.00 0.00 0.00 80 1013.7
20260502034541 14 344 9.7 11.3 0.00 0.00 0.00 80 1013.7
20260502034215 14 40 4.8 6.4 0.00 0.00 0.00 80 1014.1
20260502034040 14 0 1.6 4.8 0.00 0.00 0.00 79 1014.1
20260502033542 14 14 3.2 6.4 0.00 0.00 0.00 79 1014.1
20260502033216 13 357 3.2 6.4 0.00 0.00 0.00 79 1014.1
20260502033042 13 340 9.7 9.7 0.00 0.00 0.00 80 1014.1
20260502032541 14 24 4.8 4.8 0.00 0.00 0.00 81 1014.1
20260502032214 14 1 4.8 8.0 0.00 0.00 0.00 81 1014.1
20260502032040 14 152 4.8 4.8 0.00 0.00 0.00 81 1014.1
20260502031542 14 21 8.0 9.7 0.00 0.00 0.00 80 1014.1
20260502031216 14 344 6.4 9.7 0.00 0.00 0.00 80 1014.3
20260502031040 14 0 4.8 4.8 0.00 0.00 0.00 80 1014.3
20260502030541 14 356 3.2 6.4 0.00 0.00 0.00 79 1014.3
20260502030214 14 3 4.8 8.0 0.00 0.00 0.00 79 1014.3
20260502030041 14 0 4.8 9.7 0.00 0.00 0.00 78 1014.3
20260502025541 14 353 4.8 8.0 0.00 0.00 0.00 78 1014.6
20260502025215 14 322 4.8 11.3 0.00 0.00 0.00 77 1014.6
20260502025040 14 0 4.8 9.7 0.00 0.00 0.00 77 1014.6
20260502024540 14 14 3.2 8.0 0.00 0.00 0.00 77 1014.6
20260502024214 14 0 4.8 4.8 0.00 0.00 0.00 76 1014.7
20260502024040 14 0 6.4 8.0 0.00 0.00 0.00 76 1014.7
20260502023541 14 350 8.0 8.0 0.00 0.00 0.00 76 1014.7
20260502023215 14 357 1.6 4.8 0.00 0.00 0.00 76 1014.7
20260502023041 14 349 3.2 4.8 0.00 0.00 0.00 76 1014.7
20260502022540 14 333 0.0 4.8 0.00 0.00 0.00 76 1014.7
20260502022214 14 333 4.8 4.8 0.00 0.00 0.00 76 1014.7
20260502022041 14 344 1.6 4.8 0.00 0.00 0.00 76 1014.7
20260502021541 14 352 3.2 3.2 0.00 0.00 0.00 77 1014.7
20260502021215 14 339 3.2 3.2 0.00 0.00 0.00 76 1014.7
20260502021041 14 335 1.6 1.6 0.00 0.00 0.00 76 1014.7
20260502020540 14 333 1.6 4.8 0.00 0.00 0.00 76 1014.7
20260502020214 14 352 1.6 4.8 0.00 0.00 0.00 76 1014.7
20260502020042 14 349 3.2 3.2 0.00 0.00 0.00 77 1014.7
20260502015542 14 344 0.0 1.6 0.00 0.00 0.00 78 1014.3
20260502015249 14 352 0.0 0.0 0.00 0.00 0.00 78 1014.3
20260502015215 14 352 0.0 0.0 0.00 0.00 0.00 78 1014.3
20260502015043 14 352 0.0 0.0 0.00 0.00 0.00 77 1014.3
20260502014541 14 352 0.0 1.6 0.00 0.00 0.00 77 1014.3
20260502014213 14 352 1.6 3.2 0.00 0.00 0.00 77 1014.3
20260502014042 14 346 1.6 3.2 0.00 0.00 0.00 77 1014.3
20260502013540 14 347 1.6 3.2 0.00 0.00 0.00 77 1014.3
20260502013215 14 352 3.2 4.8 0.00 0.00 0.00 77 1014.3
20260502013041 14 353 3.2 6.4 0.00 0.00 0.00 77 1014.3
20260502012540 14 354 4.8 4.8 0.00 0.00 0.00 78 1014.3
20260502012213 14 0 4.8 6.4 0.00 0.00 0.00 78 1014.3
20260502012042 14 359 4.8 4.8 0.00 0.00 0.00 77 1014.3
20260502011541 14 333 3.2 3.2 0.00 0.00 0.00 76 1014.3
20260502011219 15 347 3.2 4.8 0.00 0.00 0.00 76 1014.2
20260502011040 15 357 3.2 4.8 0.00 0.00 0.00 77 1014.2
20260502010540 15 0 4.8 4.8 0.00 0.00 0.00 77 1014.2
20260502010214 15 347 3.2 4.8 0.00 0.00 0.00 76 1014.2
20260502010041 15 342 3.2 4.8 0.00 0.00 0.00 76 1014.2
20260502005541 15 0 3.2 3.2 0.00 0.00 0.00 74 1013.9
20260502005215 15 0 3.2 4.8 0.00 0.00 0.00 74 1013.9
20260502005041 15 342 4.8 4.8 0.00 0.00 0.00 74 1013.9
20260502004540 15 354 3.2 3.2 0.00 0.00 0.00 75 1013.9
20260502004214 15 0 1.6 3.2 0.00 0.00 0.00 75 1013.7
20260502004042 15 0 1.6 3.2 0.00 0.00 0.00 75 1013.7
20260502003541 15 353 0.0 3.2 0.00 0.00 0.00 75 1013.7
20260502003219 15 0 1.6 3.2 0.00 0.00 0.00 75 1013.7
20260502003041 15 0 1.6 3.2 0.00 0.00 0.00 75 1013.7
20260502002541 15 0 3.2 3.2 0.00 0.00 0.00 73 1013.7
20260502002214 15 0 3.2 3.2 0.00 0.00 0.00 73 1013.7
20260502002042 15 0 1.6 6.4 0.00 0.00 0.00 73 1013.7
20260502001541 15 357 3.2 3.2 0.00 0.00 0.00 73 1013.7
20260502001249 15 357 1.6 3.2 0.00 0.00 0.00 72 1013.6
20260502001215 15 357 1.6 3.2 0.00 0.00 0.00 72 1013.6
20260502001041 15 359 4.8 4.8 0.00 0.00 0.00 71 1013.6
20260502000540 15 357 3.2 4.8 0.00 0.00 0.00 71 1013.6
20260502000214 15 357 4.8 4.8 0.00 0.00 0.00 71 1013.6
20260502000043 15 1 1.6 4.8 0.00 0.00 0.00 71 1013.6
20260501235541 15 359 3.2 4.8 0.00 0.00 0.00 72 1013.3
20260501235256 15 10 3.2 4.8 0.00 0.00 0.00 73 1013.3
20260501235214 15 10 3.2 4.8 0.00 0.00 0.00 73 1013.3
20260501235041 15 1 3.2 3.2 0.00 0.00 0.00 73 1013.3
20260501234540 15 4 1.6 3.2 0.00 0.00 0.00 74 1013.3
20260501234214 15 347 4.8 4.8 0.00 0.00 0.00 74 1013.5
20260501234042 15 11 4.8 4.8 0.00 0.00 0.00 74 1013.5
20260501233541 15 0 6.4 6.4 0.00 0.00 0.00 73 1013.5
20260501233214 15 356 1.6 4.8 0.00 0.00 0.00 72 1013.5
20260501233040 15 0 1.6 4.8 0.00 0.00 0.00 72 1013.5
20260501232541 15 0 1.6 3.2 0.00 0.00 0.00 72 1013.6
20260501232216 15 1 1.6 4.8 0.00 0.00 0.00 71 1013.6
20260501232040 15 3 4.8 4.8 0.00 0.00 0.00 71 1013.6
20260501231540 15 0 4.8 4.8 0.00 0.00 0.00 71 1013.6
20260501231213 15 8 1.6 4.8 0.00 0.00 0.00 71 1013.5
20260501231040 15 24 3.2 4.8 0.00 0.00 0.00 72 1013.5
20260501230541 15 0 1.6 3.2 0.00 0.00 0.00 73 1013.5
20260501230218 16 0 0.0 4.8 0.00 0.00 0.00 73 1013.5
20260501230041 16 3 1.6 3.2 0.00 0.00 0.00 72 1013.5
20260501225540 16 0 3.2 3.2 0.00 0.00 0.00 72 1013.4
20260501225214 16 10 0.0 4.8 0.00 0.00 0.00 71 1013.4
20260501225041 16 4 3.2 3.2 0.00 0.00 0.00 72 1013.4
20260501224540 16 354 0.0 3.2 0.00 0.00 0.00 72 1013.4
20260501224215 16 357 1.6 3.2 0.00 0.00 0.00 72 1013.3
20260501224041 16 357 0.0 1.6 0.00 0.00 0.00 71 1013.3
20260501223541 16 333 0.0 1.6 0.00 0.00 0.00 71 1013.3
20260501223214 16 347 1.6 3.2 0.00 0.00 0.00 72 1013.3
20260501223041 16 353 0.0 0.0 0.00 0.00 0.00 71 1013.3
20260501222540 16 0 0.0 0.0 0.00 0.00 0.00 70 1013.2
20260501222213 16 0 4.8 4.8 0.00 0.00 0.00 69 1013.2
20260501222040 16 18 4.8 6.4 0.00 0.00 0.00 69 1013.2
20260501221542 16 17 3.2 3.2 0.00 0.00 0.00 68 1013.2
20260501221217 16 357 4.8 8.0 0.00 0.00 0.00 68 1013.2
20260501221042 16 350 4.8 6.4 0.00 0.00 0.00 70 1013.2
20260501220541 16 357 0.0 0.0 0.00 0.00 0.00 69 1013.2
20260501220215 16 11 3.2 4.8 0.00 0.00 0.00 68 1013.2
20260501220040 16 357 0.0 1.6 0.00 0.00 0.00 67 1013.2
20260501215541 16 357 0.0 6.4 0.00 0.00 0.00 65 1012.9
20260501215216 16 16 3.2 3.2 0.00 0.00 0.00 66 1012.9
20260501215040 16 25 1.6 6.4 0.00 0.00 0.00 65 1012.9